[[{"header":{"parameterUnit":"m.s-1","parameterCategory":1,"la1":30.2991,"la2":30.254,"lo1":-89.0895,"lo2":-89.0444,"dy":0.0017,"dx":0.0017,"nx":28,"ny":28,"refTime":"2023-09-28T21:00:00:Z","depth":0,"parameterNumber":2,"parameterNumberName":"U-component_of_WINDS"},"data":[0,0,0,0,0,0,0,0,0,0,0,0,0,0,0,0,0,0,0,0,0,0,0,0,0,0,0,0,0,0,0,0,0,0,0,0,0,0,0,0,0,0,0,0,0,0,0,0,0,0,0,0,0,0,0,0,0,0,-4.6576,-4.6576,0,-4.6557,-4.6557,-4.6556,-4.6415,-4.6412,-4.6408,-4.6405,-4.6386,-4.6389,-4.6391,0,0,0,0,0,0,0,0,0,0,0,0,0,-4.6492,-4.6494,-4.6576,-4.6576,-4.6576,-4.6557,-4.6557,-4.6556,-4.6416,-4.6411,-4.6407,-4.6403,-4.6385,-4.6388,-4.6392,0,0,0,0,0,0,0,0,0,0,0,0,0,-4.6506,-4.6495,-4.6576,-4.6503,-4.6496,-4.6557,-4.6557,-4.6556,-4.6416,-4.6411,-4.6406,-4.6401,-4.6384,-4.6388,-4.6392,-4.6522,0,0,-4.6405,-4.6406,0,0,0,0,0,0,0,0,-4.6506,-4.6509,-4.6514,-4.6508,-4.6501,-4.6483,-4.652,-4.6545,-4.6418,-4.6447,-4.6405,-4.6399,-4.6423,-4.6423,-4.6431,-4.6521,-4.652,-4.6405,-4.6407,-4.6409,-4.641,0,0,0,0,0,0,0,-4.6505,-4.651,-4.6568,-4.6514,-4.6506,-4.6472,-4.6468,-4.6524,-4.6464,-4.6444,-4.6434,-4.6433,-4.6418,-4.6427,-4.6429,-4.652,-4.6405,-4.6408,-4.6411,-4.6413,-4.6717,-4.6722,0,0,0,0,0,0,-4.6514,-4.651,-4.6569,-4.6568,-4.649,-4.6477,-4.6473,-4.6494,-4.6463,-4.6453,-4.6438,-4.6427,-4.6423,-4.6425,-4.6428,-4.6579,-4.6409,-4.6413,-4.6415,-4.6711,-4.6718,-4.6724,0,0,0,0,0,0,-4.6513,-4.6521,-4.657,-4.6536,-4.654,-4.6484,-4.6509,-4.6496,-4.6506,-4.6458,-4.6447,-4.6458,-4.6419,-4.6422,-4.65,-4.6577,-4.6415,-4.6419,-4.6704,-4.6713,-4.6721,-4.6882,0,0,0,0,0,0,-4.6511,-4.6521,-4.6569,-4.6538,-4.6542,-4.6642,-4.6513,-4.65,-4.6513,-4.6498,-4.6475,-4.6466,-4.6415,-4.6494,-4.6504,-4.6579,-4.6422,-4.6697,-4.6708,-4.6718,-4.687,-4.6895,-4.6917,0,0,0,0,0,-4.6508,-4.6615,-4.6572,-4.658,-4.6601,-4.6646,-4.6649,-4.6588,-4.652,-4.6568,-4.6538,-4.6467,-4.6567,-4.6504,-4.6513,-4.6591,-4.6692,-4.6705,-4.6717,-4.6859,-4.689,-4.6916,0,0,0,0,0,0,-4.6656,-4.661,-4.6562,-4.6661,-4.6659,-4.6622,-4.6681,-4.6622,-4.6639,-4.6625,-4.6548,-4.6544,-4.6634,-4.6619,-4.655,-4.6716,-4.6617,-4.6632,-4.6722,-4.6751,-4.6774,-4.6776,-4.6425,0,0,0,0,0,-4.6701,-4.6741,-4.6698,-4.679,-4.6791,-4.6737,-4.6755,-4.6708,-4.6702,-4.6701,-4.6676,-4.6674,-4.6705,-4.6726,-4.6752,-4.6867,-4.686,-4.6925,-4.6948,-4.6968,-4.6982,-4.7044,-4.7072,-4.6765,-4.6765,-4.6765,0,0,-4.6792,-4.6772,-4.6802,-4.6819,-4.6812,-4.6856,-4.6737,-4.6788,-4.6821,-4.6708,-4.678,-4.6763,-4.6755,-4.6852,-4.6894,-4.6843,-4.7066,-4.6984,-4.7,-4.7004,-4.706,-4.7089,-4.7115,-4.6774,-4.6772,-4.6771,0,0,-4.6982,-4.6971,-4.7047,-4.7042,-4.7033,-4.6996,-4.7015,-4.6988,-4.6972,-4.7043,-4.696,-4.6997,-4.7052,-4.705,-4.7057,-4.7249,-4.7184,-4.7259,-4.7382,-4.7443,-4.7467,-4.7488,-4.7558,-4.7584,-4.7273,-4.7274,-4.7274,0,-4.7098,-4.7161,-4.7094,-4.7151,-4.7162,-4.7063,-4.714,-4.7139,-4.7139,-4.7149,-4.7092,-4.7159,-4.7147,-4.7243,-4.7291,-4.7298,-4.7318,-4.7262,-4.7469,-4.7489,-4.7508,-4.7574,-4.76,-4.7283,-4.7282,-4.7281,-4.728,0,-4.7304,-4.7349,-4.7412,-4.7415,-4.7433,-4.75,-4.7444,-4.747,-4.7423,-4.7393,-4.7467,-4.7449,-4.747,-4.7489,-4.7443,-4.758,-4.7549,-4.7482,-4.7382,-4.7548,-4.7609,-4.7633,-4.7296,-4.7293,-4.729,-4.7288,0,0,-4.7586,-4.7552,-4.7577,-4.7578,-4.7561,-4.7595,-4.7658,-4.7679,-4.7704,-4.7707,-4.7759,-4.7808,-4.7747,-4.7754,-4.7707,-4.776,-4.7916,-4.7686,-4.7685,-4.7731,-4.8067,-4.8119,-4.815,-4.7873,-4.7877,-4.7881,-4.8069,0,-4.777,-4.7877,-4.7819,-4.7933,-4.7975,-4.7882,-4.7937,-4.7934,-4.7908,-4.794,-4.791,-4.7948,-4.7862,-4.7867,-4.7915,-4.7887,-4.7982,-4.7872,-4.7922,-4.7924,-4.7928,-4.8181,-4.8235,-4.8413,-4.8092,-4.8096,-4.8099,0,-4.7999,-4.8013,-4.8133,-4.8109,-4.8125,-4.8176,-4.8191,-4.8222,-4.8217,-4.8194,-4.8204,-4.8144,-4.8206,-4.8106,-4.8191,-4.8117,-4.8134,-4.8124,-4.8129,-4.8132,-4.8022,-4.8192,-4.8469,-4.8496,-4.8135,-4.8132,-4.813,0,-4.8195,-4.8244,-4.8322,-4.8325,-4.83,-4.8338,-4.8329,-4.8318,-4.8335,-4.8349,-4.8359,-4.838,-4.8392,-4.841,-4.8358,-4.829,-4.845,-4.8346,-4.8434,-4.8436,-4.8473,-4.8472,-4.8758,-4.8482,-4.8482,-4.8481,-4.8481,0,-4.8407,-4.8484,-4.841,-4.8458,-4.8542,-4.8475,-4.856,-4.8541,-4.8533,-4.8576,-4.8497,-4.8539,-4.8467,-4.8503,-4.8463,-4.8541,-4.8546,-4.853,-4.8519,-4.8538,-4.8541,-4.8549,-4.8536,-4.8488,-4.8487,-4.8485,-4.8484,0,-4.8641,-4.8594,-4.8673,-4.8643,-4.8637,-4.8701,-4.8675,-4.8719,-4.8688,-4.8744,-4.8753,-4.8705,-4.8743,-4.8693,-4.8726,-4.8699,-4.8805,-4.8774,-4.8808,-4.8799,-4.8891,-4.8884,-4.9193,-4.9231,-4.8931,-4.8934,-4.8936,0,-4.878,-4.8837,-4.8814,-4.8837,-4.8833,-4.8872,-4.8889,-4.8826,-4.8847,-4.8846,-4.8891,-4.8922,-4.8944,-4.901,-4.8978,-4.9003,-4.8974,-4.908,-4.8977,-4.8995,-4.8977,-4.8975,-4.8981,-4.9102,-4.9106,-4.9108,-4.9111,0,-4.9032,-4.9007,-4.9034,-4.9055,-4.9078,-4.9091,-4.9098,-4.9122,-4.9056,-4.9084,-4.9123,-4.914,-4.9174,-4.9207,-4.9225,-4.9216,-4.9154,-4.9144,-4.9166,-4.9187,-4.9204,-4.9198,-4.8867,-4.9137,-4.9134,-4.9132,-4.9131,-4.913,-4.9223,-4.9271,-4.9262,-4.9296,-4.9295,-4.9304,-4.9345,-4.9319,-4.935,-4.9373,-4.9334,-4.9383,-4.9377,-4.9394,-4.9393,-4.9431,-4.9384,-4.9416,-4.9424,-4.9434,-4.9449,-4.9198,-4.9433,-4.9432,-4.9432,-4.9431,-4.943,0,-4.9473,-4.9463,-4.9495,-4.9508,-4.9536,-4.9474,-4.948,-4.9507,-4.9551,-4.9551,-4.9575,-4.962,-4.9652,-4.9623,-4.965,-4.9686,-4.9658,-4.9695,-4.9693,-4.9692,-4.9487,-4.9466,-4.9717,-4.9717,-4.9717,-4.9717,-4.9717,-4.9717,-4.9606,-4.9683,-4.9657,-4.9734,-4.9723,-4.9771,-4.978,-4.9788,-4.9788,-4.9842,-4.9868,-4.9849,-4.9838,-4.9864,-4.9891,-4.9881,-4.9896,-4.9944,-4.9925,-4.9734,-4.9706,-4.9679,-4.9659,-4.9947,-4.9947,-5.0126,-5.0128,-5.0129]},{"header":{"parameterUnit":"m.s-1","parameterCategory":1,"la1":30.2991,"la2":30.254,"lo1":-89.0895,"lo2":-89.0444,"dy":0.0017,"dx":0.0017,"nx":28,"ny":28,"refTime":"2023-09-28T21:00:00:Z","depth":0,"parameterNumber":3,"parameterNumberName":"V-component_of_WINDS"},"data":[0,0,0,0,0,0,0,0,0,0,0,0,0,0,0,0,0,0,0,0,0,0,0,0,0,0,0,0,0,0,0,0,0,0,0,0,0,0,0,0,0,0,0,0,0,0,0,0,0,0,0,0,0,0,0,0,0,0,-1.9321,-1.9321,0,-1.9325,-1.9325,-1.9325,-1.9294,-1.9293,-1.9292,-1.9291,-1.9296,-1.9297,-1.9298,0,0,0,0,0,0,0,0,0,0,0,0,0,-1.9286,-1.9287,-1.9321,-1.9321,-1.9321,-1.9325,-1.9325,-1.9325,-1.9294,-1.9293,-1.9292,-1.9291,-1.9296,-1.9297,-1.9298,0,0,0,0,0,0,0,0,0,0,0,0,0,-1.9297,-1.9287,-1.9321,-1.9306,-1.9304,-1.9325,-1.9325,-1.9325,-1.9294,-1.9293,-1.9292,-1.929,-1.9296,-1.9297,-1.9299,-1.9334,0,0,-1.9303,-1.9304,0,0,0,0,0,0,0,0,-1.9296,-1.9298,-1.9308,-1.9307,-1.9305,-1.9307,-1.9314,-1.9328,-1.9294,-1.9298,-1.9291,-1.929,-1.9301,-1.9302,-1.9306,-1.9334,-1.9334,-1.9303,-1.9304,-1.9305,-1.9305,0,0,0,0,0,0,0,-1.9295,-1.9298,-1.9322,-1.9308,-1.9307,-1.9299,-1.9299,-1.9317,-1.9307,-1.9298,-1.9295,-1.9296,-1.93,-1.9304,-1.9306,-1.9334,-1.9303,-1.9304,-1.9305,-1.9306,-1.939,-1.9392,0,0,0,0,0,0,-1.9296,-1.9297,-1.9322,-1.9322,-1.9297,-1.93,-1.9301,-1.9308,-1.9307,-1.9305,-1.9297,-1.9295,-1.9303,-1.9304,-1.9306,-1.9346,-1.9305,-1.9306,-1.9307,-1.9389,-1.939,-1.9392,0,0,0,0,0,0,-1.9296,-1.9299,-1.9322,-1.9309,-1.9311,-1.9302,-1.9311,-1.9309,-1.9313,-1.9306,-1.9305,-1.9304,-1.9302,-1.9304,-1.9327,-1.9346,-1.9306,-1.9308,-1.9387,-1.9389,-1.9391,-1.9428,0,0,0,0,0,0,-1.9295,-1.9299,-1.9312,-1.931,-1.9312,-1.9343,-1.9312,-1.931,-1.9315,-1.9312,-1.9312,-1.931,-1.9301,-1.9325,-1.9328,-1.9347,-1.9309,-1.9385,-1.9388,-1.9391,-1.9425,-1.9431,-1.9436,0,0,0,0,0,-1.9294,-1.9323,-1.9313,-1.9316,-1.9329,-1.9344,-1.9346,-1.9334,-1.9317,-1.933,-1.9326,-1.931,-1.9343,-1.9327,-1.9331,-1.9351,-1.9384,-1.9387,-1.939,-1.9423,-1.943,-1.9436,0,0,0,0,0,0,-1.9329,-1.9323,-1.9312,-1.9341,-1.9343,-1.9339,-1.9355,-1.9342,-1.935,-1.9346,-1.9331,-1.9332,-1.9357,-1.9356,-1.9338,-1.9384,-1.9361,-1.9365,-1.9384,-1.9391,-1.9397,-1.9397,-1.931,0,0,0,0,0,-1.934,-1.9353,-1.9347,-1.9373,-1.9375,-1.9365,-1.9371,-1.9361,-1.9364,-1.9365,-1.9362,-1.9365,-1.9375,-1.9383,-1.9393,-1.9424,-1.9424,-1.944,-1.9446,-1.945,-1.9454,-1.947,-1.9477,-1.9402,-1.9402,-1.9402,0,0,-1.9363,-1.9361,-1.9371,-1.938,-1.9381,-1.9394,-1.9366,-1.9382,-1.9392,-1.9367,-1.9389,-1.9387,-1.9389,-1.9416,-1.9428,-1.9416,-1.9474,-1.9454,-1.9458,-1.9459,-1.9474,-1.9481,-1.9488,-1.9404,-1.9404,-1.9404,0,0,-1.9413,-1.9413,-1.9434,-1.9435,-1.9436,-1.9429,-1.9434,-1.9432,-1.9429,-1.945,-1.9432,-1.9443,-1.9463,-1.9465,-1.9468,-1.9517,-1.9502,-1.952,-1.955,-1.9566,-1.9572,-1.9577,-1.9594,-1.9601,-1.9524,-1.9524,-1.9524,0,-1.9442,-1.9462,-1.9447,-1.9464,-1.9468,-1.9446,-1.9467,-1.9469,-1.9473,-1.9477,-1.9463,-1.9486,-1.9486,-1.9513,-1.9525,-1.9529,-1.9534,-1.9521,-1.9572,-1.9577,-1.9582,-1.9598,-1.9605,-1.9526,-1.9526,-1.9526,-1.9525,0,-1.9497,-1.9511,-1.9528,-1.9532,-1.9538,-1.9558,-1.9546,-1.9554,-1.9543,-1.9538,-1.9559,-1.9558,-1.9566,-1.9572,-1.9562,-1.9598,-1.959,-1.9575,-1.9551,-1.9591,-1.9606,-1.9613,-1.9529,-1.9528,-1.9528,-1.9527,0,0,-1.9571,-1.9565,-1.9572,-1.9573,-1.9572,-1.9582,-1.96,-1.9608,-1.9615,-1.9618,-1.9633,-1.9649,-1.9634,-1.9638,-1.9628,-1.9642,-1.968,-1.9624,-1.9624,-1.9635,-1.9719,-1.9731,-1.9739,-1.967,-1.9671,-1.9672,-1.9719,0,-1.9619,-1.9649,-1.9635,-1.9667,-1.9679,-1.9657,-1.9672,-1.9673,-1.9668,-1.9678,-1.9672,-1.9683,-1.9663,-1.9665,-1.9678,-1.9673,-1.9697,-1.9669,-1.9684,-1.9685,-1.9685,-1.9747,-1.976,-1.9804,-1.9725,-1.9726,-1.9726,0,-1.968,-1.9685,-1.9717,-1.9713,-1.9717,-1.9731,-1.9737,-1.9746,-1.9747,-1.9742,-1.9746,-1.9732,-1.9749,-1.9724,-1.9748,-1.9729,-1.9734,-1.9732,-1.9734,-1.9735,-1.9709,-1.975,-1.9818,-1.9825,-1.9735,-1.9735,-1.9734,0,-1.973,-1.9745,-1.9766,-1.9768,-1.9763,-1.9773,-1.9772,-1.9771,-1.9776,-1.9781,-1.9784,-1.9791,-1.9795,-1.98,-1.9789,-1.9772,-1.9814,-1.9788,-1.981,-1.9811,-1.9821,-1.9821,-1.9891,-1.9823,-1.9823,-1.9823,-1.9823,0,-1.9786,-1.9807,-1.9788,-1.9802,-1.9824,-1.9808,-1.9831,-1.9827,-1.9826,-1.9837,-1.9818,-1.983,-1.9814,-1.9824,-1.9815,-1.9835,-1.9837,-1.9834,-1.9831,-1.9836,-1.9837,-1.984,-1.9837,-1.9825,-1.9824,-1.9824,-1.9824,0,-1.9847,-1.9835,-1.9857,-1.985,-1.9849,-1.9865,-1.986,-1.9871,-1.9864,-1.9879,-1.9882,-1.9871,-1.9882,-1.987,-1.9881,-1.9874,-1.9902,-1.9895,-1.9902,-1.99,-1.9923,-1.9921,-1.9998,-2.0008,-1.9934,-1.9934,-1.9935,0,-1.9883,-1.9899,-1.9893,-1.9899,-1.9899,-1.9909,-1.9914,-1.9899,-1.9904,-1.9905,-1.9917,-1.9926,-1.9932,-1.995,-1.9943,-1.995,-1.9943,-1.997,-1.9945,-1.9948,-1.9944,-1.9944,-1.9945,-1.9975,-1.9976,-1.9977,-1.9978,0,-1.995,-1.9943,-1.9951,-1.9956,-1.9962,-1.9966,-1.9968,-1.9974,-1.9958,-1.9965,-1.9975,-1.998,-1.999,-1.9999,-2.0004,-2.0002,-1.9988,-1.9985,-1.9991,-1.9996,-2.0,-1.9998,-1.9917,-1.9984,-1.9983,-1.9983,-1.9983,-1.9982,-2.0,-2.0012,-2.001,-2.0019,-2.0018,-2.002,-2.0031,-2.0024,-2.0032,-2.0039,-2.0029,-2.0042,-2.004,-2.0046,-2.0046,-2.0056,-2.0044,-2.0052,-2.0055,-2.0057,-2.006,-1.9998,-2.0056,-2.0056,-2.0056,-2.0056,-2.0056,0,-2.0066,-2.0063,-2.0071,-2.0074,-2.008,-2.0064,-2.0066,-2.0073,-2.0084,-2.0084,-2.009,-2.0101,-2.0109,-2.0103,-2.0109,-2.0119,-2.0112,-2.0121,-2.0121,-2.012,-2.007,-2.0065,-2.0126,-2.0126,-2.0126,-2.0126,-2.0126,-2.0126,-2.0101,-2.012,-2.0113,-2.0132,-2.0129,-2.0141,-2.0143,-2.0144,-2.0144,-2.0157,-2.0164,-2.0159,-2.0156,-2.0162,-2.0169,-2.0167,-2.0171,-2.0182,-2.0178,-2.0131,-2.0124,-2.0117,-2.0112,-2.0183,-2.0183,-2.0227,-2.0228,-2.0228]}]]